DW6157 Weather Reports


time (UTC)temp
F
wind
direction
speed
knots
gust
knots
rain 1hr
in
rain 24hr
in
rain mn
in
humidity
%
barometer
mb
20260502214526 51 233 0.9 4.3 0.00 0.08 0.08 91 1009.0
20260502213030 51 223 0.9 3.5 0.00 0.08 0.08 91 1008.9
20260502211533 51 240 0.0 0.0 0.00 0.08 0.08 91 1009.0
20260502210027 51 240 0.0 0.0 0.01 0.08 0.08 91 1009.1
20260502204525 51 240 0.0 0.0 0.01 0.08 0.08 90 1009.1
20260502203026 52 240 0.0 0.0 0.02 0.08 0.08 91 1009.0
20260502201524 51 240 0.0 0.0 0.02 0.08 0.08 90 1008.9
20260502200023 51 243 0.0 0.0 0.02 0.07 0.07 90 1008.8
20260502194523 51 244 0.0 0.0 0.04 0.07 0.07 90 1008.8
20260502193022 52 244 0.0 0.0 0.05 0.06 0.06 88 1008.6
20260502191522 52 244 0.0 0.0 0.06 0.06 0.06 88 1008.6
20260502190033 52 241 0.0 0.0 0.05 0.05 0.05 85 1008.8
20260502184520 54 240 0.0 0.0 0.03 0.03 0.03 81 1009.2
20260502183020 55 289 0.0 0.0 0.01 0.01 0.01 76 1009.1
20260502181518 56 288 0.0 2.6 0.00 0.00 0.00 73 1009.2
20260502163017 59 195 1.7 3.5 0.00 0.00 0.00 70 1009.0
20260502161513 60 205 2.6 4.3 0.00 0.00 0.00 67 1009.1
20260502151527 59 233 3.5 7.0 0.00 0.00 0.00 67 1009.4
20260502130106 62 205 6.1 9.6 0.00 0.00 0.00 71 1010.3
20260502123055 62 205 7.0 10.4 0.00 0.00 0.00 69 1010.6
20260502121554 63 216 7.8 11.3 0.00 0.00 0.00 66 1010.6
20260502114551 64 200 5.2 9.6 0.00 0.00 0.00 64 1011.1
20260502113053 64 210 6.1 10.4 0.00 0.00 0.00 61 1011.1
20260502111548 63 200 5.2 10.4 0.00 0.00 0.00 62 1011.3
20260502110055 63 196 5.2 9.6 0.00 0.00 0.00 60 1011.6
20260502104542 63 205 5.2 8.7 0.00 0.00 0.00 59 1011.8
20260502103040 62 189 3.5 7.8 0.00 0.00 0.00 59 1011.9
20260502101541 61 196 5.2 9.6 0.00 0.00 0.00 58 1011.9
20260502091533 60 225 6.1 11.3 0.00 0.00 0.00 61 1012.4
20260502071514 59 210 5.2 8.7 0.00 0.00 0.00 62 1013.4
20260502070029 58 200 3.5 7.8 0.00 0.00 0.00 65 1013.6
20260502064508 58 220 2.6 7.8 0.00 0.00 0.00 66 1013.7
20260502063015 57 200 2.6 7.0 0.00 0.00 0.00 67 1013.8
20260502061502 56 225 2.6 5.2 0.00 0.00 0.00 71 1013.9
20260502060057 56 261 0.9 4.3 0.00 0.00 0.00 72 1013.9
20260502054556 54 239 0.0 4.3 0.00 0.00 0.00 76 1014.0
20260502053050 53 228 1.7 4.3 0.00 0.00 0.00 78 1014.2
20260502051547 52 222 2.6 7.0 0.00 0.00 0.00 80 1014.2
20260502050048 51 223 1.7 7.0 0.00 0.00 0.00 83 1014.3
20260502044540 50 252 1.7 4.3 0.00 0.00 0.00 86 1014.5
20260502043039 49 222 2.6 9.6 0.00 0.00 0.00 88 1014.7
20260502041545 47 224 3.5 7.8 0.00 0.00 0.00 88 1014.8
20260502040035 46 210 4.3 8.7 0.00 0.00 0.00 86 1014.9
20260502034533 45 200 2.6 7.0 0.00 0.00 0.00 82 1015.1
20260502033031 46 229 0.9 3.5 0.00 0.00 0.00 80 1015.2
20260502031527 46 237 1.7 3.5 0.00 0.00 0.00 80 1015.4
20260502030026 46 266 1.7 5.2 0.00 0.00 0.00 80 1015.5
20260502024523 47 210 1.7 7.0 0.00 0.00 0.00 80 1015.7
20260502023020 47 205 2.6 7.0 0.00 0.00 0.00 80 1016.0
20260502021518 47 220 2.6 7.0 0.00 0.00 0.00 80 1016.1
20260502020016 47 218 2.6 7.0 0.00 0.00 0.00 80 1016.2
20260502014516 47 240 2.6 7.0 0.00 0.00 0.00 81 1016.3
20260502013013 48 233 3.5 7.8 0.00 0.00 0.00 80 1016.5
20260502011511 47 232 3.5 7.0 0.00 0.00 0.00 81 1016.5
20260502010012 47 210 3.5 7.0 0.00 0.00 0.00 82 1016.7
20260502004507 47 229 5.2 7.8 0.00 0.00 0.00 82 1016.9
20260502003005 48 246 3.5 7.8 0.00 0.00 0.00 83 1017.1
20260502001501 48 224 2.6 7.0 0.00 0.00 0.00 83 1017.3
20260502000122 48 218 3.5 9.6 0.00 0.00 0.00 83 1017.4
20260501234557 49 219 3.5 7.8 0.00 0.00 0.00 81 1017.5
20260501233055 49 234 3.5 8.7 0.00 0.00 0.00 80 1017.6
20260501231553 50 223 4.3 8.7 0.00 0.00 0.00 78 1017.7
20260501230049 50 229 4.3 8.7 0.00 0.00 0.00 77 1017.8
20260501224604 50 227 3.5 7.0 0.00 0.00 0.00 76 1018.0
20260501223043 51 224 2.6 7.8 0.00 0.00 0.00 76 1018.1
20260501221544 51 226 2.6 7.0 0.00 0.00 0.00 76 1018.2
20260501220042 51 238 2.6 9.6 0.00 0.00 0.00 77 1018.1